User: anonymous   Login
Location: Arborea
(39.7744°N, 8.5819°E)
Time: 15:54:37
(UTC+00:00)
Language:

Oscar 11 - Orbit

View from above orbital plane
View from above orbital plane
View from above satellite
View from above satellite

Ground track
Ground track

The orbit data is extracted from the following two-line orbital elements,

1 14781U 84021B   24149.50397795  .00001439  00000-0  16791-3 0  9995
2 14781  97.7039 119.3695 0009265 133.5980 226.6006 14.86647729166563
Epoch (UTC): 28 May 2024 12:05:43
Eccentricity: 0.0009265
inclination: 97.7039°
perigee height: 602 km
apogee height: 615 km
right ascension of ascending node: 119.3695°
argument of perigee: 133.5980°
revolutions per day: 14.86647729
mean anomaly at epoch: 226.6006°
orbit number at epoch: 16656

The dashed part of the orbit path shows where the satellite is in the earth's shadow,  

DLR